Location: Moscow
(55.7500°N, 37.5830°E)
Time: 06:28:59
(UTC+03:00)

A-11 Canister half - Pass Details

Date: 07 December 2021
Orbit: 1524 x 1684 km, 47.3° (Epoch: 17 January)

Event Time Altitude Azimuth Distance (km) Brightness Sun altitude
Exits shadow 07:19:00 - 273° (W) 3,971 10.6 -10.8°
Reaches altitude 10° 07:19:12 10° 272° (W) 3,921 10.6 -10.8°
Maximum altitude 07:27:14 29° 218° (SW) 2,676 10.2 -9.8°
Drops below altitude 10° 07:35:05 10° 164° (SSE) 3,815 11.7 -8.8°
Sets 07:38:40 0° 154° (SSE) 4,772 12.6 -8.4°
